小惑星A/2019 Q1

A/2019 Q1

English version
Home page
Updated on July 8, 2020

---------------------------------------------------------------------

・ プロフィール

発見日 2019年8月28日
発見光度 20.6等
発見者 Mt. Lemmon Survey

・ 写真集

・ 軌道要素

Epoch 2020 July 10.0 TT = JDT 2459040.5
T 2020 July 19.68659 TT                                 Rudenko
q   4.9971917            (2000.0)            P               Q
z  -0.0001729      Peri.   55.92120     +0.92269155     -0.26824022
 +/-0.0000050      Node    42.33764     -0.30126997     -0.94985463
e   1.0008638      Incl.  155.72139     +0.24057577     -0.16069654
H   12.5
From 120 observations 2019 Aug. 28-2020 May 21, mean residual 0".5.

・ 光度変化

        H = 12.5  G = 0.15

---------------------------------------------------------------------

軌道要素はM.P.E.C. 2020-L06に掲載されたものです。
光度グラフはComet for Windowsで作成したものです。

---------------------------------------------------------------------

Copyright(C) Seiichi Yoshida (comet@aerith.net). All rights reserved.